Weather History for Pittsburgh Allegheny Co., PA

Change the Weather History Date:

Wednesday, January 29, 2014

  Actual Average Record
Temperature  
Mean Temperature 7 °F -  
Max Temperature 16 °F 42 °F 68 °F (2013)
Min Temperature -2 °F 22 °F -2 °F (2014)
Degree Days  
Heating Degree Days 58    
Moisture  
Dew Point -7 °F    
Average Humidity 52    
Maximum Humidity 62    
Minimum Humidity 41    
Precipitation  
Precipitation 0.00 in - - ()
Sea Level Pressure  
Sea Level Pressure 30.32 in    
Wind  
Wind Speed 9 mph (SW)    
Max Wind Speed 20 mph    
Max Gust Speed 29 mph    
Visibility 10 miles    
Events      
Averages and records for this station are not official NWS values.
T = Trace of Precipitation, MM = Missing Value Source: NWS Daily Summary

Daily Weather History Graph

Daily Weather History Graph

Search for Another Location

Airport:

Trip Planner

Search our weather history database for the weather conditions in past years. The results will help you decide how hot, cold, wet, or windy it might be!

Date:

Astronomy

Jan. 29, 2014 Rise Set
Actual Time 7:31 AM EST 5:34 PM EST
Civil Twilight 7:02 AM EST 6:03 PM EST
Nautical Twilight 6:29 AM EST 6:36 PM EST
Astronomical Twilight 5:57 AM EST 7:08 PM EST
Moon 6:06 AM EST (1/29) 4:32 PM EST (1/29)
Length of Visible Light 11h 00m
Length of Day
10h 02m
Waning Crescent, 2% of the Moon is Illuminated
Jan 29
Waning Crescent
Jan 30
New
Feb 6
First Quarter
Feb 14
Full
Feb 22
Last Quarter

Hourly Weather History & Observations

Time (EST) Temp. Windchill Dew Point Humidity Pressure Visibility Wind Dir Wind Speed Gust Speed Precip Events Conditions
12:53 AM 1.9 °F -9.2 °F -11.0 °F 55% 30.31 in 10.0 mi WSW 5.8 mph - N/A   Clear
1:53 AM 1.0 °F -11.7 °F -11.0 °F 57% 30.32 in 10.0 mi WSW 6.9 mph - N/A   Clear
2:53 AM -0.0 °F -14.2 °F -11.9 °F 57% 30.31 in 10.0 mi West 8.1 mph - N/A   Clear
3:53 AM -0.9 °F -14.1 °F -13.0 °F 57% 30.30 in 10.0 mi West 6.9 mph - N/A   Clear
4:53 AM -2.0 °F -13.9 °F -13.0 °F 60% 30.30 in 10.0 mi SSW 5.8 mph - N/A   Clear
5:53 AM -2.9 °F -16.5 °F -13.0 °F 62% 30.31 in 10.0 mi SSW 6.9 mph - N/A   Clear
6:53 AM -2.9 °F -17.7 °F -14.1 °F 59% 30.31 in 10.0 mi SSW 8.1 mph - N/A   Clear
7:53 AM -2.9 °F -19.8 °F -13.0 °F 62% 30.31 in 10.0 mi South 10.4 mph - N/A   Clear
8:53 AM -0.0 °F -16.3 °F -11.9 °F 57% 30.32 in 10.0 mi SSW 10.4 mph - N/A   Clear
9:53 AM 3.9 °F -10.4 °F -9.0 °F 55% 30.34 in 10.0 mi SW 9.2 mph - N/A   Clear
10:53 AM 8.1 °F -9.0 °F -6.0 °F 53% 30.34 in 10.0 mi WSW 15.0 mph 21.9 mph N/A   Clear
11:53 AM 10.9 °F -7.0 °F -5.1 °F 49% 30.33 in 10.0 mi WSW 18.4 mph 23.0 mph N/A   Clear
12:53 PM 12.9 °F -4.4 °F -4.0 °F 47% 30.28 in 10.0 mi SW 18.4 mph 21.9 mph N/A   Clear
1:53 PM 15.1 °F 1.1 °F -4.0 °F 43% 30.27 in 10.0 mi WSW 12.7 mph 18.4 mph N/A   Clear
2:53 PM 16.0 °F -0.9 °F -2.9 °F 43% 30.28 in 10.0 mi WSW 19.6 mph 26.5 mph N/A   Clear
3:53 PM 16.0 °F -0.9 °F -4.0 °F 41% 30.28 in 10.0 mi WSW 19.6 mph 28.8 mph N/A   Clear
4:53 PM 16.0 °F 0.1 °F -4.0 °F 41% 30.30 in 10.0 mi WSW 17.3 mph 23.0 mph N/A   Clear
5:53 PM 15.1 °F 2.5 °F -4.0 °F 43% 30.32 in 10.0 mi WSW 10.4 mph - N/A   Clear
6:53 PM 14.0 °F 1.2 °F -4.0 °F 45% 30.34 in 10.0 mi SW 10.4 mph - N/A   Clear
7:53 PM 12.0 °F 0.5 °F -4.0 °F 49% 30.36 in 10.0 mi SSW 8.1 mph - N/A   Clear
8:53 PM 10.9 °F 1.4 °F -4.0 °F 51% 30.37 in 10.0 mi SSW 5.8 mph - N/A   Clear
9:53 PM 10.9 °F -1.8 °F -4.0 °F 51% 30.38 in 10.0 mi South 9.2 mph - N/A   Clear
10:53 PM 10.0 °F -1.9 °F -4.0 °F 53% 30.38 in 10.0 mi South 8.1 mph - N/A   Clear
11:53 PM 9.0 °F -4.2 °F -4.0 °F 56% 30.38 in 10.0 mi South 9.2 mph - N/A   Clear